H1 CPF 2 NER 2022 10 5 9 278 01 glonass134 H2 1407501 9134 40315 2022 10 5 0 0 0 2022 10 8 23 45 0 900 1 1 0 0 0 1 H9 10 0 59857 0.00000 0 17377599.256 4145714.351 18192810.397 10 0 59857 900.00000 0 18991851.892 5509602.377 16087271.713 10 0 59857 1800.00000 0 20478131.339 6586053.097 13668677.142 10 0 59857 2700.00000 0 21776091.962 7379419.878 10983904.837 10 0 59857 3600.00000 0 22829590.909 7905995.964 8085097.809 10 0 59857 4500.00000 0 23589068.285 8193073.219 5028651.600 10 0 59857 5400.00000 0 24013674.083 8277534.755 1874111.302 10 0 59857 6300.00000 0 24073049.939 8204041.175 -1317000.006 10 0 59857 7200.00000 0 23748688.056 8022888.078 -4482397.293 10 0 59857 8100.00000 0 23034807.678 7787627.165 -7560268.604 10 0 59857 9000.00000 0 21938710.104 7552553.914 -10490502.907 10 0 59857 9900.00000 0 20480595.970 7370170.763 -13215884.461 10 0 59857 10800.00000 0 18692851.849 7288735.993 -15683228.258 10 0 59857 11700.00000 0 16618836.256 7350004.625 -17844432.546 10 0 59857 12600.00000 0 14311216.904 7587259.105 -19657426.384 10 0 59857 13500.00000 0 11829930.218 8023714.650 -21086992.998 10 0 59857 14400.00000 0 9239850.052 8671367.566 -22105452.643 10 0 59857 15300.00000 0 6608264.665 9530335.358 -22693192.047 10 0 59857 16200.00000 0 4002268.500 10588716.035 -22839031.068 10 0 59857 17100.00000 0 1486178.196 11822971.665 -22540420.789 10 0 59857 18000.00000 0 -880919.436 13198818.771 -21803470.806 10 0 59857 18900.00000 0 -3047386.165 14672586.788 -20642806.965 10 0 59857 19800.00000 0 -4970927.081 16192986.298 -19081264.046 10 0 59857 20700.00000 0 -6620084.592 17703211.706 -17149421.016 10 0 59857 21600.00000 0 -7975272.363 19143289.559 -14884989.283 10 0 59857 22500.00000 0 -9029309.274 20452573.801 -12332066.908 10 0 59857 23400.00000 0 -9787434.338 21572283.612 -9540274.105 10 0 59857 24300.00000 0 -10266805.256 22447978.165 -6563787.218 10 0 59857 25200.00000 0 -10495504.361 23031865.711 -3460289.999 10 0 59857 26100.00000 0 -10511095.955 23284851.476 -289862.335 10 0 59857 27000.00000 0 -10358797.215 23178240.057 2886172.579 10 0 59857 27900.00000 0 -10089340.427 22695022.300 6006421.190 10 0 59857 28800.00000 0 -9756616.640 21830693.903 9010590.939 10 0 59857 29700.00000 0 -9415199.449 20593572.174 11840638.678 10 0 59857 30600.00000 0 -9117852.248 19004597.812 14441875.412 10 0 59857 31500.00000 0 -8913122.689 17096629.600 16764007.432 10 0 59857 32400.00000 0 -8843124.422 14913260.303 18762095.241 10 0 59857 33300.00000 0 -8941598.418 12507201.441 20397413.095 10 0 59857 34200.00000 0 -9232334.885 9938302.088 21638193.585 10 0 59857 35100.00000 0 -9728022.109 7271281.578 22460243.636 10 0 59857 36000.00000 0 -10429571.342 4573267.775 22847420.291 10 0 59857 36900.00000 0 -11325947.555 1911240.687 22791956.783 10 0 59857 37800.00000 0 -12394515.217 -650514.583 22294631.832 10 0 59857 38700.00000 0 -13601887.249 -3052841.535 21364777.548 10 0 59857 39600.00000 0 -14905244.261 -5243932.461 20020124.020 10 0 59857 40500.00000 0 -16254071.545 -7181243.297 18286481.524 10 0 59857 41400.00000 0 -17592243.324 -8833023.216 16197264.279 10 0 59857 42300.00000 0 -18860368.538 -10179394.395 13792862.836 10 0 59857 43200.00000 0 -19998300.589 -11212935.896 11119875.365 10 0 59857 44100.00000 0 -20947705.612 -11938746.074 8230211.287 10 0 59857 45000.00000 0 -21654580.282 -12373979.913 5180083.863 10 0 59857 45900.00000 0 -22071611.469 -12546880.172 2028911.161 10 0 59857 46800.00000 0 -22160275.957 -12495343.135 -1161852.706 10 0 59857 47700.00000 0 -21892589.072 -12265080.078 -4329931.976 10 0 59857 48600.00000 0 -21252425.744 -11907453.494 -7413463.910 10 0 59857 49500.00000 0 -20236355.876 -11477081.479 -10352227.555 10 0 59857 50400.00000 0 -18853956.850 -11029314.045 -13088840.272 10 0 59857 51300.00000 0 -17127588.768 -10617690.743 -15569896.562 10 0 59857 52200.00000 0 -15091641.335 -10291489.785 -17747025.083 10 0 59857 53100.00000 0 -12791284.295 -10093474.580 -19577841.727 10 0 59857 54000.00000 0 -10280774.629 -10057934.716 -21026779.366 10 0 59857 54900.00000 0 -7621392.601 -10209105.257 -22065777.851 10 0 59857 55800.00000 0 -4879094.371 -10560031.407 -22674821.162 10 0 59857 56700.00000 0 -2121980.401 -11111926.103 -22842312.171 10 0 59857 57600.00000 0 582313.948 -11854046.652 -22565279.069 10 0 59857 58500.00000 0 3169196.542 -12764094.203 -21849411.040 10 0 59857 59400.00000 0 5579558.418 -13809117.649 -20708924.241 10 0 59857 60300.00000 0 7761975.205 -14946882.279 -19166262.447 10 0 59857 61200.00000 0 9674580.132 -16127644.171 -17251639.807 10 0 59857 62100.00000 0 11286533.214 -17296254.639 -15002436.025 10 0 59857 63000.00000 0 12579028.330 -18394505.611 -12462456.795 10 0 59857 63900.00000 0 13545799.298 -19363617.222 -9681074.719 10 0 59857 64800.00000 0 14193107.089 -20146763.458 -6712267.816 10 0 59857 65700.00000 0 14539211.672 -20691530.513 -3613574.369 10 0 59857 66600.00000 0 14613353.146 -20952205.706 -444984.230 10 0 59857 67500.00000 0 14454286.875 -20891802.128 2732212.503 10 0 59857 68400.00000 0 14108435.380 -20483735.318 5856597.962 10 0 59857 69300.00000 0 13627735.152 -19713082.744 8867798.463 10 0 59857 70200.00000 0 13067268.769 -18577374.066 11707634.559 10 0 59857 71100.00000 0 12482781.174 -17086879.316 14321228.424 10 0 59857 72000.00000 0 11928183.392 -15264382.628 16658048.581 10 0 59857 72900.00000 0 11453147.389 -13144449.985 18672873.287 10 0 59857 73800.00000 0 11100891.836 -10772219.851 20326655.347 10 0 59857 74700.00000 0 10906250.862 -8201764.980 21587272.666 10 0 59857 75600.00000 0 10894106.329 -5494090.953 22430150.844 10 0 59857 76500.00000 0 11078249.564 -2714851.842 22838746.035 10 0 59857 77400.00000 0 11460721.057 68124.824 22804878.520 10 0 59857 78300.00000 0 12031657.281 2787403.610 22328909.757 10 0 59857 79200.00000 0 12769653.076 5378492.838 21419758.193 10 0 59857 80100.00000 0 13642626.723 7782277.828 20094751.774 10 0 59857 81000.00000 0 14609153.948 9947235.423 18379317.952 10 0 59857 81900.00000 0 15620217.147 11831337.828 16306514.959 10 0 59857 82800.00000 0 16621298.241 13403565.823 13916411.288 10 0 59857 83700.00000 0 17554728.376 14644967.292 11255323.501 10 0 59857 84600.00000 0 18362195.966 15549215.609 8374925.652 10 0 59857 85500.00000 0 18987306.889 16122643.229 5331246.808 10 0 59858 0.00000 0 19378087.515 16383748.170 2183576.246 10 0 59858 900.00000 0 19489322.985 16362193.783 -1006703.604 10 0 59858 1800.00000 0 19284629.006 16097343.818 -4177328.187 10 0 59858 2700.00000 0 18738167.559 15636395.971 -7266386.214 10 0 59858 3600.00000 0 17835930.775 15032193.842 -10213548.982 10 0 59858 4500.00000 0 16576536.687 14340812.083 -12961269.035 10 0 59858 5400.00000 0 14971501.462 13619019.209 -15455922.326 10 0 59858 6300.00000 0 13044975.479 12921727.864 -17648869.723 10 0 59858 7200.00000 0 10832954.038 12299542.633 -19497415.602 10 0 59858 8100.00000 0 8381996.090 11796510.912 -20965644.002 10 0 59858 9000.00000 0 5747505.455 11448173.046 -22025115.771 10 0 59858 9900.00000 0 2991647.633 11279994.570 -22655413.399 10 0 59858 10800.00000 0 180990.334 11306246.384 -22844523.867 10 0 59858 11700.00000 0 -2616032.895 11529379.122 -22589053.344 10 0 59858 12600.00000 0 -5331729.630 11939916.567 -21894271.176 10 0 59858 13500.00000 0 -7901717.669 12516870.716 -20773984.053 10 0 59858 14400.00000 0 -10267350.067 13228659.033 -19250244.564 10 0 59858 15300.00000 0 -12377896.548 14034483.352 -17352901.451 10 0 59858 16200.00000 0 -14192392.587 14886110.775 -15119001.725 10 0 59858 17100.00000 0 -15681081.749 15729980.402 -12592057.364 10 0 59858 18000.00000 0 -16826394.012 16509546.558 -9821191.692 10 0 59858 18900.00000 0 -17623422.348 17167759.741 -6860182.479 10 0 59858 19800.00000 0 -18079880.646 17649581.283 -3766420.396 10 0 59858 20700.00000 0 -18215547.358 17904426.682 -599802.925 10 0 59858 21600.00000 0 -18061220.402 17888435.923 2578415.420 10 0 59858 22500.00000 0 -17657228.701 17566476.485 5706795.096 10 0 59858 23400.00000 0 -17051563.653 16913796.013 8724884.047 10 0 59858 24300.00000 0 -16297709.176 15917256.089 11574369.378 10 0 59858 25200.00000 0 -15452260.929 14576095.775 14200187.314 10 0 59858 26100.00000 0 -14572433.735 12902192.795 16551571.463 10 0 59858 27000.00000 0 -13713560.502 10919810.626 18583020.585 10 0 59858 27900.00000 0 -12926686.211 8664840.535 20255168.595 10 0 59858 28800.00000 0 -12256356.574 6183568.145 21535541.008 10 0 59858 29700.00000 0 -11738693.112 3531013.277 22399184.032 10 0 59858 30600.00000 0 -11399834.855 768909.190 22829154.471 10 0 59858 31500.00000 0 -11254812.079 -2036597.716 22816860.716 10 0 59858 32400.00000 0 -11306900.082 -4817435.116 22362247.523 10 0 59858 33300.00000 0 -11547481.416 -7506178.082 21473819.716 10 0 59858 34200.00000 0 -11956424.234 -10038603.516 20168502.602 10 0 59858 35100.00000 0 -12502962.961 -12356120.786 18471339.796 10 0 59858 36000.00000 0 -13147046.443 -14407977.926 16415032.041 10 0 59858 36900.00000 0 -13841098.802 -16153151.220 14039323.835 10 0 59858 37800.00000 0 -14532120.244 -17561838.505 11390247.827 10 0 59858 38700.00000 0 -15164040.033 -18616492.565 8519240.102 10 0 59858 39600.00000 0 -15680222.206 -19312349.893 5482142.717 10 0 59858 40500.00000 0 -16026017.269 -19657431.392 2338112.623 10 0 59858 41400.00000 0 -16151250.253 -19672014.078 -851541.351 10 0 59858 42300.00000 0 -16012537.582 -19387595.635 -4024569.522 10 0 59858 43200.00000 0 -15575332.009 -18845395.866 -7119015.152 10 0 59858 44100.00000 0 -14815606.310 -18094459.263 -10074444.874 10 0 59858 45000.00000 0 -13721101.938 -17189440.540 -12833149.417 10 0 59858 45900.00000 0 -12292087.676 -16188168.771 -15341289.049 10 0 59858 46800.00000 0 -10541594.661 -15149095.428 -17549959.475 10 0 59858 47700.00000 0 -8495116.984 -14128736.361 -19416155.866 10 0 59858 48600.00000 0 -6189790.221 -13179217.735 -20903615.325 10 0 59858 49500.00000 0 -3673082.682 -12346030.858 -21983521.091 10 0 59858 50400.00000 0 -1001055.042 -11666091.305 -22635055.030 10 0 59858 51300.00000 0 1763737.878 -11166184.037 -22845788.533 10 0 59858 52200.00000 0 4554614.685 -10861859.103 -22611905.542 10 0 59858 53100.00000 0 7303304.796 -10756822.951 -21938254.877 10 0 59858 54000.00000 0 9942549.726 -10842848.845 -20838232.674 10 0 59858 54900.00000 0 12408660.297 -11100207.915 -19333498.905 10 0 59858 55800.00000 0 14643924.207 -11498600.294 -17453535.158 10 0 59858 56700.00000 0 16598765.348 -11998545.000 -15235053.719 10 0 59858 57600.00000 0 18233567.114 -12553168.234 -12721270.535 10 0 59858 58500.00000 0 19520086.177 -13110313.484 -9961057.069 10 0 59858 59400.00000 0 20442400.631 -13614883.860 -7007988.006 10 0 59858 60300.00000 0 20997355.737 -14011317.828 -3919303.367 10 0 59858 61200.00000 0 21194491.285 -14246094.454 -754805.075 10 0 59858 62100.00000 0 21055455.916 -14270163.426 2424291.171 10 0 59858 63000.00000 0 20612934.724 -14041198.569 5556527.328 10 0 59858 63900.00000 0 19909136.169 -13525581.114 8581375.985 10 0 59858 64800.00000 0 18993902.189 -12700030.279 11440393.548 10 0 59858 65700.00000 0 17922520.506 -11552813.220 14078332.721 10 0 59858 66600.00000 0 16753330.032 -10084483.727 16444194.223 10 0 59858 67500.00000 0 15545218.500 -8308118.130 18492198.940 10 0 59858 68400.00000 0 14355115.650 -6249037.297 20182663.083 10 0 59858 69300.00000 0 13235585.437 -3944024.457 21482760.535 10 0 59858 70200.00000 0 12232616.707 -1440068.954 22367158.460 10 0 59858 71100.00000 0 11383703.797 1207314.703 22818514.245 10 0 59858 72000.00000 0 10716296.959 3936125.637 22827823.947 10 0 59858 72900.00000 0 10246687.546 6680191.616 22394614.812 10 0 59858 73800.00000 0 9979375.391 9371666.969 21526976.901 10 0 59858 74700.00000 0 9906946.169 11943611.808 20241431.465 10 0 59858 75600.00000 0 10010465.508 14332547.054 18562636.614 10 0 59858 76500.00000 0 10260375.137 16480879.805 16522933.737 10 0 59858 77400.00000 0 10617855.163 18339098.018 14161741.312 10 0 59858 78300.00000 0 11036596.560 19867642.302 11524805.908 10 0 59858 79200.00000 0 11464910.011 21038375.438 8663323.372 10 0 59858 80100.00000 0 11848082.292 21835586.489 5632946.388 10 0 59858 81000.00000 0 12130879.949 22256485.862 2492697.451 10 0 59858 81900.00000 0 12260092.956 22311169.181 -696191.212 10 0 59858 82800.00000 0 12187008.588 22022050.566 -3871486.903 10 0 59858 83700.00000 0 11869708.179 21422788.988 -6971189.743 10 0 59858 84600.00000 0 11275086.652 20556753.426 -9934763.848 10 0 59858 85500.00000 0 10380506.636 19475092.744 -12704340.084 10 0 59859 0.00000 0 9175014.757 18234493.639 -15225864.547 10 0 59859 900.00000 0 7660066.055 16894722.652 -17450169.749 10 0 59859 1800.00000 0 5849726.271 15516059.886 -19333942.712 10 0 59859 2700.00000 0 3770340.637 14156732.439 -20840574.711 10 0 59859 3600.00000 0 1459684.542 12870458.959 -21940872.316 10 0 59859 4500.00000 0 -1034368.376 11704209.009 -22613617.521 10 0 59859 5400.00000 0 -3655604.071 10696271.833 -22845966.699 10 0 59859 6300.00000 0 -6341577.521 9874715.055 -22633681.867 10 0 59859 7200.00000 0 -9025984.759 9256296.712 -21981191.341 10 0 59859 8100.00000 0 -11641198.151 8845874.275 -20901480.370 10 0 59859 9000.00000 0 -14120859.238 8636332.969 -19415815.593 10 0 59859 9900.00000 0 -16402421.576 8609033.758 -17553310.369 10 0 59859 10800.00000 0 -18429538.828 8734759.445 -15350340.838 10 0 59859 11700.00000 0 -20154200.289 8975116.718 -12849825.220 10 0 59859 12600.00000 0 -21538526.897 9284333.204 -10100381.216 10 0 59859 13500.00000 0 -22556155.310 9611372.449 -7155378.359 10 0 59859 14400.00000 0 -23193154.867 9902277.023 -4071903.848 10 0 59859 15300.00000 0 -23448441.588 10102640.853 -909661.801 10 0 59859 16200.00000 0 -23333674.257 10160106.997 2270173.235 10 0 59859 17100.00000 0 -22872638.735 10026786.379 5406127.121 10 0 59859 18000.00000 0 -22100147.581 9661496.592 8437599.581 10 0 59859 18900.00000 0 -21060501.723 9031727.526 11306018.861 10 0 59859 19800.00000 0 -19805578.523 8115251.871 13955956.702 10 0 59859 20700.00000 0 -18392625.703 6901313.249 16336183.457 10 0 59859 21600.00000 0 -16881852.242 5391341.869 18400644.521 10 0 59859 22500.00000 0 -15333915.523 3599166.819 20109340.587 10 0 59859 23400.00000 0 -13807408.117 1550714.555 21429095.790 10 0 59859 24300.00000 0 -12356447.588 -716796.121 22334199.772 10 0 59859 25200.00000 0 -11028468.600 -3156131.834 22806911.606 10 0 59859 26100.00000 0 -9862308.625 -5711745.025 22837815.663 10 0 59859 27000.00000 0 -8886666.750 -8321829.446 22426021.870 10 0 59859 27900.00000 0 -8119000.160 -10920648.401 21579205.253 10 0 59859 28800.00000 0 -7564905.182 -13441041.452 20313482.287 10 0 59859 29700.00000 0 -7218009.962 -15817007.408 18653124.440 10 0 59859 30600.00000 0 -7060384.726 -17986257.340 16630112.215 10 0 59859 31500.00000 0 -7063453.957 -19892631.531 14283536.194 10 0 59859 32400.00000 0 -7189373.465 -21488279.180 11658854.704 10 0 59859 33300.00000 0 -7392815.280 -22735508.629 8807020.959 10 0 59859 34200.00000 0 -7623085.458 -23608229.043 5783495.727 10 0 59859 35100.00000 0 -7826484.913 -24092921.296 2647164.372 10 0 59859 36000.00000 0 -7948812.291 -24189095.566 -540820.206 10 0 59859 36900.00000 0 -7937901.071 -23909214.943 -3718245.071 10 0 59859 37800.00000 0 -7746081.030 -23278087.453 -6823069.988 10 0 59859 38700.00000 0 -7332456.992 -22331751.971 -9794659.348 10 0 59859 39600.00000 0 -6664905.529 -21115905.563 -12574986.911 10 0 59859 40500.00000 0 -5721702.400 -19683939.875 -15109787.690 10 0 59859 41400.00000 0 -4492709.571 -18094671.062 -17349632.585 10 0 59859 42300.00000 0 -2980070.026 -16409861.012 -19250903.189 10 0 59859 43200.00000 0 -1198379.929 -14691636.250 -20776646.836 10 0 59859 44100.00000 0 825669.519 -12999914.851 -21897294.883 10 0 59859 45000.00000 0 3054165.311 -11389950.774 -22591230.438 10 0 59859 45900.00000 0 5439323.746 -9910099.228 -22845195.336 10 0 59859 46800.00000 0 7925262.049 -8599896.534 -22654529.675 10 0 59859 47700.00000 0 10450115.512 -7488533.890 -22023240.822 10 0 59859 48600.00000 0 12948411.032 -6593787.132 -20963902.296 10 0 59859 49500.00000 0 15353597.740 -5921444.860 -19497386.206 10 0 59859 50400.00000 0 17600629.153 -5465256.095 -17652436.134 10 0 59859 51300.00000 0 19628489.935 -5207396.621 -15465090.208 10 0 59859 52200.00000 0 21382563.064 -5119431.569 -12977966.710 10 0 59859 53100.00000 0 22816740.322 -5163731.247 -10239427.033 10 0 59859 54000.00000 0 23895190.096 -5295278.641 -7302632.711 10 0 59859 54900.00000 0 24593710.979 -5463791.084 -4224515.008 10 0 59859 55800.00000 0 24900616.876 -5616066.043 -1064676.940 10 0 59859 56700.00000 0 24817118.839 -5698452.037 2115751.470 10 0 59859 57600.00000 0 24357189.474 -5659341.002 5255283.318 10 0 59859 58500.00000 0 23546916.979 -5451577.863 8293248.626 10 0 59859 59400.00000 0 22423376.605 -5034686.779 11170950.390 10 0 59859 60300.00000 0 21033066.868 -4376821.221 13832781.944 10 0 59859 61200.00000 0 19429975.422 -3456356.522 16227285.441 10 0 59859 62100.00000 0 17673354.363 -2263058.127 18308132.536 10 0 59859 63000.00000 0 15825296.317 -798776.038 20035009.727 10 0 59859 63900.00000 0 13948210.812 922364.779 21374392.303 10 0 59859 64800.00000 0 12102304.304 2874287.916 22300192.875 10 0 59859 65700.00000 0 10343167.237 5019791.994 22794272.282 10 0 59859 66600.00000 0 8719567.390 7311848.556 22846802.889 10 0 59859 67500.00000 0 7271540.569 9695320.528 22456476.582 10 0 59859 68400.00000 0 6028857.913 12109032.938 21630552.247 10 0 59859 69300.00000 0 5009934.024 14488112.513 20384740.108 10 0 59859 70200.00000 0 4221222.264 16766501.149 18742923.191 10 0 59859 71100.00000 0 3657123.587 18879540.179 16736719.037 10 0 59859 72000.00000 0 3300414.056 20766518.391 14404888.021 10 0 59859 72900.00000 0 3123174.324 22373077.340 11792597.737 10 0 59859 73800.00000 0 3088182.946 23653372.475 8950556.143 10 0 59859 74700.00000 0 3150715.305 24571897.986 5934029.354 10 0 59859 75600.00000 0 3260672.093 25104896.936 2801762.842 10 0 59859 76500.00000 0 3364946.446 25241295.386 -385172.607 10 0 59859 77400.00000 0 3409928.025 24983119.349 -3564586.525 10 0 59859 78300.00000 0 3344035.762 24345375.639 -6674400.912 10 0 59859 79200.00000 0 3120169.318 23355400.813 -9653882.821 10 0 59859 80100.00000 0 2697972.574 22051705.634 -12444851.047 10 0 59859 81000.00000 0 2045810.486 20482364.426 -14992831.166 10 0 59859 81900.00000 0 1142373.151 18703018.450 -17248134.489 10 0 59859 82800.00000 0 -22162.724 16774579.133 -19166838.219 10 0 59859 83700.00000 0 -1445465.361 14760729.638 -20711646.763 10 0 59859 84600.00000 0 -3112901.406 12725331.523 -21852617.030 10 0 59859 85500.00000 0 -4997917.582 10729846.806 -22567733.747 10 0 59860 0.00000 0 -7062933.906 8830884.488 -22843324.438 10 0 59860 900.00000 0 -9260711.383 7077973.302 -22674307.260 10 0 59860 1800.00000 0 -11536133.124 5511655.768 -22064268.175 10 0 59860 2700.00000 0 -13828327.228 4161978.220 -21025368.175 10 0 59860 3600.00000 0 -16073039.341 3047440.286 -19578083.654 10 0 59860 4500.00000 0 -18205156.568 2174443.925 -17750786.866 10 0 59860 5400.00000 0 -20161277.426 1537262.104 -15579176.046 10 0 59860 6300.00000 0 -21882221.274 1118525.226 -13105567.415 10 0 59860 7200.00000 0 -23315373.617 890201.950 -10378063.750 10 0 59860 8100.00000 0 -24416770.975 815030.606 -7449616.181 10 0 59860 9000.00000 0 -25152840.131 848339.005 -4376997.569 10 0 59860 9900.00000 0 -25501721.045 940174.784 -1219707.339 10 0 59860 10800.00000 0 -25454120.158 1037655.905 1961171.500 10 0 59860 11700.00000 0 -25013660.133 1087442.276 5104141.780 10 0 59860 12600.00000 0 -24196712.777 1038224.882 8148466.322 10 0 59860 13500.00000 0 -23031722.984 843128.366 11035325.344 10 0 59860 14400.00000 0 -21558052.195 461926.836 13708936.181 10 0 59860 15300.00000 0 -19824389.312 -137019.482 16117615.070 10 0 59860 16200.00000 0 -17886794.446 -975187.695 18214762.009 10 0 59860 17100.00000 0 -15806455.574 -2062742.019 19959751.095 10 0 59860 18000.00000 0 -13647249.839 -3397858.789 21318710.230 10 0 59860 18900.00000 0 -11473209.057 -4966556.388 22265176.032 10 0 59860 19800.00000 0 -9345992.916 -6743039.319 22780611.721 10 0 59860 20700.00000 0 -7322473.378 -8690544.678 22854777.815 10 0 59860 21600.00000 0 -5452529.409 -10762658.779 22485947.894 10 0 59860 22500.00000 0 -3777143.006 -12905052.248 21680964.024 10 0 59860 23400.00000 0 -2326875.659 -15057564.219 20455129.134 10 0 59860 24300.00000 0 -1120789.046 -17156551.428 18831936.415 10 0 59860 25200.00000 0 -165855.793 -19137406.199 16842638.740 10 0 59860 26100.00000 0 543113.950 -20937139.317 14525664.294 10 0 59860 27000.00000 0 1023025.916 -22496920.136 11925887.715 10 0 59860 27900.00000 0 1301552.883 -23764467.003 9093769.278 10 0 59860 28800.00000 0 1415722.849 -24696186.398 6084377.883 10 0 59860 29700.00000 0 1410103.676 -25258969.089 2956316.444 10 0 59860 30600.00000 0 1334661.471 -25431565.589 -229429.067 10 0 59860 31500.00000 0 1242384.523 -25205480.810 -3410693.365 10 0 59860 32400.00000 0 1186775.364 -24585348.312 -6525363.376 10 0 59860 33300.00000 0 1219319.604 -23588767.006 -9512611.463 10 0 59860 34200.00000 0 1387041.557 -22245606.455 -12314104.017 10 0 59860 35100.00000 0 1730252.996 -20596810.137 -14875159.631 10 0 59860 36000.00000 0 2280592.973 -18692747.781 -17145832.283 10 0 59860 36900.00000 0 3059443.814 -16591187.426 -19081896.784 10 0 59860 37800.00000 0 4076791.833 -14354974.115 -20645716.270 10 0 59860 38700.00000 0 5330581.836 -12049514.319 -21806974.439 10 0 59860 39600.00000 0 6806592.875 -9740173.141 -22543258.427 10 0 59860 40500.00000 0 8478840.219 -7489694.310 -22840481.771 10 0 59860 41400.00000 0 10310485.973 -5355751.241 -22693140.441 10 0 59860 42300.00000 0 12255219.077 -3388731.183 -22104398.506 10 0 59860 43200.00000 0 14259045.865 -1629843.765 -21086003.476 10 0 59860 44100.00000 0 16262415.313 -109630.911 -19658034.725 10 0 59860 45000.00000 0 18202589.341 1153062.179 -17848491.561 10 0 59860 45900.00000 0 20016158.907 2151615.132 -15692730.399 10 0 59860 46800.00000 0 21641600.901 2891640.779 -13232763.172 10 0 59860 47700.00000 0 23021769.676 3390476.693 -10516431.525 10 0 59860 48600.00000 0 24106220.212 3676184.221 -7596473.398 10 0 59860 49500.00000 0 24853267.305 3786099.550 -4529500.251 10 0 59860 50400.00000 0 25231696.324 3764999.549 -1374904.780 10 0 59860 51300.00000 0 25222055.770 3662960.746 1806280.212 10 0 59860 52200.00000 0 24817479.172 3533002.052 4952550.427 10 0 59860 53100.00000 0 24024003.278 3428610.335 8003104.447 10 0 59860 54000.00000 0 22860370.094 3401252.452 10899002.431 10 0 59860 54900.00000 0 21357321.341 3497977.591 13584288.129 10 0 59860 55800.00000 0 19556414.513 3759209.849 16007053.921 10 0 59860 56700.00000 0 17508409.010 4216823.076 18120429.851 10 0 59860 57600.00000 0 15271288.114 4892578.494 19883478.965 10 0 59860 58500.00000 0 12907997.367 5796990.767 21261982.760 10 0 59860 59400.00000 0 10483991.261 6928670.926 22229102.496 10 0 59860 60300.00000 0 8064688.048 8274175.203 22765904.043 10 0 59860 61200.00000 0 5712936.416 9808368.291 22861735.974 10 0 59860 62100.00000 0 3486597.571 11495288.520 22514453.059 10 0 59860 63000.00000 0 1436341.928 13289481.907 21730479.644 10 0 59860 63900.00000 0 -396248.542 15137752.308 20524710.047 10 0 59860 64800.00000 0 -1980193.461 16981257.445 18920245.921 10 0 59860 65700.00000 0 -3296179.143 18757865.510 16947973.422 10 0 59860 66600.00000 0 -4337130.290 20404675.321 14645986.199 10 0 59860 67500.00000 0 -5108263.326 21860595.255 12058863.358 10 0 59860 68400.00000 0 -5626618.100 23068872.642 9236814.755 10 0 59860 69300.00000 0 -5920086.799 23979466.331 6234709.226 10 0 59860 70200.00000 0 -6025980.659 24551160.992 3111004.227 10 0 59860 71100.00000 0 -5989195.174 24753331.901 -73401.986 10 0 59860 72000.00000 0 -5860052.287 24567283.464 -3256372.173 10 0 59860 72900.00000 0 -5691912.451 23987102.748 -6375760.927 10 0 59860 73800.00000 0 -5538659.893 23019990.121 -9370648.497 10 0 59860 74700.00000 0 -5452170.141 21686051.727 -12182551.222 10 0 59860 75600.00000 0 -5479869.866 20017561.961 -14756582.767 10 0 59860 76500.00000 0 -5662495.010 18057727.106 -17042541.541 10 0 59860 77400.00000 0 -6032144.383 15859002.971 -18995901.405 10 0 59860 78300.00000 0 -6610712.834 13481038.461 -20578685.350 10 0 59860 79200.00000 0 -7408771.301 10988332.858 -21760204.688 10 0 59860 80100.00000 0 -8424941.464 8447706.482 -22517649.469 10 0 59860 81000.00000 0 -9645791.133 5925691.768 -22836519.426 10 0 59860 81900.00000 0 -11046254.120 3485954.367 -22710888.233 10 0 59860 82800.00000 0 -12590555.812 1186852.022 -22143497.483 10 0 59860 83700.00000 0 -14233604.389 -920767.779 -21145680.269 10 0 59860 84600.00000 0 -15922788.146 -2795441.175 -19737117.607 10 0 59860 85500.00000 0 -17600102.517 -4406556.373 -17945434.129 99